Home   Weather   Wooster   Past weeks
Flag for USA

Past Weather in Wooster, Ohio, USA — Yesterday and Last 2 Weeks

Now
40 °F

Sunny.


Feels Like: 38 °F
Forecast: 39 / 22 °F
Wind: 3 mph from South

Location: Wayne County Airport

Current Time: Jan 23, 2020 at 4:13:40 pm

Latest Report: Jan 23, 2020 at 2:56 pm


Visibility: 10 mi

Pressure: 30.21 "Hg

Humidity: 53%

Dew Point: 24 °F

Location of WoosterLocation

Past Weather in Wooster — Graph

°F

Wooster Temperature Yesterday

Maximum temperature yesterday: 34 °F (at 2:56 pm)
Minimum temperature yesterday: 8 °F (at 1:56 am)
Average temperature yesterday: 20 °F

High & Low Weather Summary for the Past Weeks

 TemperatureHumidityPressure
High66 °F (Jan 11, 2:56 pm)100% (Jan 14, 8:56 am)30.84 "Hg (Jan 14, 8:56 am)
Low8 °F (Jan 22, 1:56 am)45% (Jan 9, 1:56 pm)29.58 "Hg (Jan 11, 11:56 pm)
Average31 °F80%30.29 "Hg
* Reported Jan 8 2:56 pm — Jan 23 2:56 pm, Wooster. Weather by CustomWeather, © 2020

Note: Actual official high and low records may vary slightly from our data, if they occured in-between our weather recording intervals... More about our weather records

Wooster Weather History for the Previous 24 Hours

Scroll right to see more
 ConditionsComfort  
Time TempWeatherWind HumidityBarometerVisibility
2:56 pm
Thu, Jan 23
40 °FSunny.3 mph53%30.21 "Hg10 mi
1:56 pm40 °FSunny.5 mph49%30.22 "Hg10 mi
12:56 pm39 °FSunny.7 mph50%30.24 "Hg10 mi
11:56 am38 °FSunny.6 mph53%30.25 "Hg10 mi
10:56 am36 °FSunny.7 mph54%30.28 "Hg10 mi
9:56 am31 °FSunny.3 mph69%30.29 "Hg10 mi
8:56 am28 °FSunny.No wind75%30.28 "Hg10 mi
7:56 am24 °FSunny.No wind84%30.28 "Hg10 mi
6:56 am24 °FClear.3 mph77%30.28 "Hg10 mi
5:56 am24 °FClear.5 mph77%30.27 "Hg10 mi
4:56 am25 °FClear.No wind75%30.27 "Hg10 mi
3:56 am23 °FClear.5 mph81%30.27 "Hg10 mi
2:56 am21 °FClear.No wind85%30.29 "Hg10 mi
1:56 am22 °FClear.3 mph78%30.30 "Hg10 mi
12:56 am20 °FClear.3 mph85%30.31 "Hg10 mi
11:56 pm
Wed, Jan 22
21 °FClear.No wind85%30.32 "Hg10 mi
10:56 pm20 °FClear.5 mph82%30.33 "Hg10 mi
9:56 pm20 °FClear.No wind82%30.34 "Hg10 mi
8:56 pm20 °FClear.3 mph85%30.36 "Hg10 mi
7:56 pm20 °FClear.No wind85%30.37 "Hg10 mi
6:56 pm28 °FClear.6 mph66%30.37 "Hg10 mi
5:56 pm30 °FClear.5 mph66%30.37 "Hg10 mi
4:56 pm32 °FSunny.6 mph59%30.37 "Hg10 mi
Weather by CustomWeather, © 2020

See weather overview

Advertising